Theta_e
339 339 339 338 339 339 343 343 344 349 351 348 347 347 343 340 336 333 337 342 338 346 349 341 351 353 352 356 361 356 356 361 356 360 362 361 364 360 356 356 358 360 363 365 365 365 366 366 366 365 365 364 364 363 362 362 363 363 364 363 362 362 362 362 361 358 358 358 358 359 360 361 361 360
341 341 339 340 338 339 340 340 343 344 346 348 348 346 346 346 340 338 334 336 345 345 346 348 346 350 354 355 357 356 359 356 357 357 360 361 361 354 352 353 354 355 356 357 359 361 363 365 366 366 366 365 364 364 363 362 363 363 363 364 363 363 362 361 359 357 357 357 357 358 359 361 361 360
339 339 338 339 338 340 340 340 341 342 343 343 345 346 347 347 347 343 340 334 345 346 347 349 351 351 352 351 352 353 356 357 356 355 359 358 360 356 359 354 354 353 352 352 354 359 362 365 366 366 366 366 365 365 364 363 363 362 362 363 363 363 362 359 357 357 357 357 358 358 359 359 360 359
339 339 338 339 339 341 341 341 341 342 343 343 341 345 346 346 346 346 342 338 338 347 347 351 352 353 352 352 350 354 356 359 357 358 357 359 357 364 360 355 354 353 351 350 351 353 357 362 365 366 366 366 366 366 365 364 363 363 362 363 363 363 360 357 356 356 356 356 357 358 358 358 358 358
336 338 337 338 337 340 341 341 341 341 342 342 341 342 343 341 344 342 343 337 338 343 353 351 350 352 352 351 353 351 352 353 355 355 358 360 359 362 361 361 352 350 350 349 349 349 351 355 360 364 366 366 367 366 365 364 363 363 362 361 361 359 356 355 355 355 355 355 356 356 357 357 357 357
334 335 334 335 334 338 339 341 340 341 343 344 343 344 341 338 341 345 340 339 338 336 343 348 349 352 355 349 355 352 348 350 350 356 354 357 360 361 363 361 362 349 350 349 348 348 348 350 353 357 361 364 365 366 365 363 362 361 358 357 355 353 352 353 353 354 355 355 355 354 355 356 356 355
332 333 333 333 334 336 336 337 340 339 337 339 341 341 342 341 342 344 343 340 338 338 337 343 343 350 353 352 350 353 353 352 353 352 352 354 362 360 360 357 360 346 347 347 347 346 346 346 348 351 353 356 359 360 359 358 355 352 350 349 347 347 348 349 348 350 352 353 354 354 354 354 354 354
329 330 331 331 331 333 335 337 338 337 336 335 336 337 341 341 341 342 343 343 340 339 338 339 342 346 347 350 352 353 354 353 352 352 352 356 353 361 359 359 360 351 344 346 346 346 345 345 345 345 347 350 353 356 352 349 348 346 344 344 345 345 346 345 344 344 347 349 350 350 351 351 351 350
328 328 329 331 331 332 332 334 336 336 337 338 336 335 336 336 339 340 340 340 341 340 338 339 343 346 348 350 351 355 353 351 352 355 352 351 354 352 355 353 356 350 346 347 346 346 345 345 344 343 344 344 345 346 347 346 346 344 343 342 342 342 342 342 341 341 341 342 343 343 344 345 345 345
326 325 327 327 328 330 331 333 333 334 335 336 336 334 333 335 338 337 337 338 338 339 338 339 337 343 343 344 346 351 354 351 349 352 354 353 353 351 349 356 353 353 355 359 356 347 344 343 340 343 343 341 341 342 344 345 345 345 344 341 339 339 340 340 339 338 338 338 338 339 339 340 341 343
324 324 325 327 328 329 331 331 332 331 332 332 334 334 333 333 335 334 335 336 337 337 335 335 336 337 341 344 341 346 351 354 354 349 349 348 353 355 354 353 353 356 355 355 353 354 355 352 352 338 334 336 338 339 340 342 344 346 346 342 338 338 339 339 338 337 336 336 335 334 334 335 337 340
322 324 324 325 327 328 331 331 330 330 328 330 330 331 331 331 332 332 333 334 334 334 335 332 332 335 336 340 343 344 346 346 348 349 345 343 346 349 352 351 350 352 353 355 356 355 354 352 350 341 337 338 339 338 338 340 344 347 348 344 340 339 338 338 337 336 336 335 334 333 332 330 331 334
322 324 324 326 327 329 328 328 328 327 327 328 328 330 331 331 331 332 332 332 332 332 332 333 334 333 333 336 340 339 339 339 339 342 343 338 345 349 348 349 352 353 351 352 352 353 359 359 359 361 359 358 346 346 342 347 344 346 346 343 341 339 337 337 336 336 335 334 334 333 333 331 329 329
322 323 324 326 325 326 326 326 326 325 327 329 329 329 330 331 330 329 329 329 330 330 329 330 330 329 330 332 338 338 340 340 343 344 343 338 342 345 347 350 352 355 353 350 350 353 358 355 351 355 357 357 359 358 354 356 354 346 340 340 339 338 337 336 336 335 334 333 333 332 332 331 330 329
320 321 323 325 324 325 325 325 324 325 326 328 328 328 329 329 330 328 327 327 330 330 328 330 330 330 331 333 337 337 337 339 339 339 340 339 340 340 339 337 345 357 348 349 348 348 355 357 348 353 355 355 358 358 356 345 343 342 339 338 338 337 337 336 335 335 334 333 333 332 331 331 330 329
319 320 321 322 323 322 322 323 323 324 325 326 326 327 328 329 330 330 330 329 328 329 328 327 329 331 331 333 334 334 336 337 337 339 339 339 339 337 335 338 338 347 353 349 344 346 355 356 352 350 352 355 354 355 345 339 339 340 338 337 336 336 336 335 335 335 334 334 333 332 331 330 330 330
318 319 319 319 319 319 322 322 319 321 322 324 325 326 327 329 329 327 327 329 331 330 330 330 330 329 328 329 330 334 336 338 336 336 335 337 337 337 337 340 341 348 351 349 343 342 350 351 348 347 352 355 356 354 341 340 338 339 337 335 335 334 334 334 334 334 334 333 332 331 330 329 329 329
317 318 317 316 316 318 320 319 316 317 320 322 323 323 325 327 328 328 328 328 328 329 329 328 327 331 333 331 331 334 335 335 333 333 333 335 336 337 338 342 343 347 350 348 347 341 346 352 349 345 351 354 355 357 345 332 332 335 336 336 333 332 332 332 333 332 332 332 331 330 329 328 328 327
317 317 315 315 316 317 317 315 313 314 317 320 321 321 322 324 326 327 328 326 325 327 327 327 328 329 332 332 332 335 336 337 337 337 337 337 338 340 343 343 345 345 348 350 347 337 344 355 351 350 351 351 354 358 336 333 334 334 335 334 333 332 331 331 331 331 331 331 330 329 328 327 326 326
317 317 316 315 315 315 315 313 313 314 316 319 319 319 320 322 323 324 324 323 322 326 327 327 326 328 328 327 328 331 330 333 336 338 339 339 339 336 334 333 338 339 342 347 345 341 342 349 346 347 352 354 352 353 353 335 334 333 333 332 332 330 329 329 329 329 329 329 329 329 328 326 324 324
316 316 316 314 313 314 312 311 308 310 315 318 317 316 318 320 321 321 322 323 324 324 323 322 323 327 326 326 325 326 326 330 333 335 334 332 332 332 331 332 333 334 339 339 340 337 337 344 346 345 348 351 351 349 352 355 337 331 332 331 330 329 328 328 327 327 328 328 328 328 327 325 324 324
316 315 315 315 312 311 309 309 308 309 314 315 315 313 315 316 317 317 317 321 323 323 323 325 328 328 328 328 328 329 327 327 331 329 327 327 329 328 330 329 333 334 336 340 339 336 335 338 343 343 346 349 354 350 351 351 349 333 327 324 326 327 327 327 326 326 326 326 326 326 325 324 324 336
314 314 314 314 311 310 309 307 307 308 312 313 313 312 312 311 312 313 316 319 320 321 322 324 325 326 325 328 329 329 327 327 328 328 327 327 326 324 326 328 330 329 332 339 344 337 339 336 340 338 334 336 342 352 352 351 353 353 355 352 346 327 325 326 326 325 324 324 324 324 323 323 322 342
312 312 313 313 310 307 307 307 307 307 309 311 312 310 309 308 309 313 317 319 318 319 319 321 322 322 323 325 326 327 327 328 329 327 326 326 325 323 324 326 327 326 330 342 342 335 336 339 334 341 338 328 329 342 349 349 351 351 351 354 352 340 330 330 328 323 322 323 322 322 321 321 323 343
310 310 311 312 309 307 308 308 306 305 308 308 311 310 309 308 310 312 316 317 317 319 319 319 320 320 320 321 323 323 324 324 325 326 325 326 326 325 323 323 324 327 330 338 337 339 334 338 337 340 337 335 337 335 342 343 346 350 354 352 351 352 353 355 349 355 326 320 320 319 318 319 319 335
310 310 311 311 308 307 308 307 305 305 306 309 310 309 306 309 309 312 314 315 317 317 317 317 318 318 318 318 319 320 320 320 323 323 324 325 326 327 328 327 325 325 328 335 336 336 334 331 335 333 334 336 335 335 336 340 345 345 350 353 357 355 356 356 355 356 353 352 347 331 330 317 319 321
310 311 311 310 307 307 304 303 304 306 307 308 308 305 306 309 311 311 312 313 313 313 314 316 315 316 316 317 317 317 317 317 320 320 322 324 325 326 328 330 333 332 332 335 338 337 336 332 335 334 333 334 332 334 334 335 337 343 344 345 350 355 355 356 355 354 353 351 352 332 322 319 319 320
308 308 308 308 306 303 301 302 305 307 307 308 305 305 307 310 310 311 311 310 311 311 310 311 311 313 313 313 314 314 315 316 318 319 321 323 324 325 328 331 332 336 334 333 334 335 335 333 332 335 334 333 331 329 331 335 335 337 339 344 346 346 349 354 352 353 354 356 355 353 352 348 338 332
310 307 307 305 305 306 305 305 308 309 308 307 307 308 309 310 311 311 309 309 310 308 308 308 309 311 313 313 315 315 315 317 318 318 318 321 323 323 325 329 332 332 328 330 332 331 331 330 330 332 333 333 331 332 333 332 334 337 340 338 341 343 345 347 348 347 351 352 351 349 349 346 349 343
307 307 308 308 308 309 309 311 311 310 310 309 308 309 309 312 310 310 309 308 308 308 307 308 308 309 310 312 315 317 317 316 315 315 316 317 318 319 320 322 325 328 328 329 329 327 328 328 330 331 331 331 332 331 332 330 332 335 337 337 339 340 346 344 345 347 347 344 344 343 345 348 348 346
311 310 310 309 310 310 310 309 309 309 310 311 310 309 310 310 310 310 310 308 307 308 307 308 308 310 310 313 315 314 315 314 314 315 315 314 316 318 319 319 320 320 324 327 326 326 326 327 328 330 329 329 331 332 332 332 330 330 334 336 338 333 335 340 343 344 345 345 347 349 350 350 348 346
312 311 309 310 309 309 310 309 310 309 310 310 309 308 308 309 310 310 309 308 309 309 309 308 309 310 311 310 310 312 313 313 314 316 315 314 314 316 317 317 317 318 320 323 324 326 325 325 325 325 328 329 327 327 330 331 331 330 330 332 333 335 338 337 337 339 340 342 341 342 347 347 348 349
311 311 309 308 308 308 307 307 307 307 307 308 307 308 308 309 309 308 308 306 306 308 308 307 307 307 308 309 309 310 312 312 312 315 314 314 313 315 316 315 315 315 315 317 320 322 324 325 326 325 326 329 329 327 324 324 326 327 327 330 330 329 332 333 334 335 339 339 339 339 340 341 344 346
309 308 306 306 306 307 306 305 305 306 306 306 305 306 306 307 307 307 307 306 306 308 308 306 306 307 307 307 307 308 310 311 312 312 312 313 314 313 312 312 313 314 315 315 317 318 320 323 324 325 327 328 329 327 325 321 320 323 324 328 327 326 329 331 332 333 335 335 335 335 335 337 340 344
308 306 305 305 306 306 305 305 304 305 305 305 304 304 305 305 307 306 306 305 306 307 307 306 306 306 306 306 306 307 308 309 310 310 312 313 313 312 312 311 311 313 313 313 314 316 318 320 321 320 322 324 324 327 319 326 321 320 323 324 325 324 326 328 329 330 332 335 335 332 333 334 336 341
308 306 306 305 305 305 305 305 305 305 305 305 304 304 304 304 305 305 305 306 307 306 305 305 306 305 305 305 306 306 307 308 308 309 309 310 309 310 311 312 312 312 313 313 313 315 316 316 317 316 315 316 317 316 321 319 319 321 319 320 323 324 326 327 329 329 329 330 330 330 329 330 333 337
306 306 306 305 305 305 304 304 304 305 305 304 304 304 304 303 304 305 307 307 307 305 305 305 305 304 305 305 306 305 306 306 306 307 308 308 308 309 308 309 310 312 312 313 314 314 315 314 314 314 312 313 313 313 315 323 318 321 325 320 322 323 325 325 325 324 326 327 327 328 328 329 331 333
306 305 305 304 305 304 305 305 305 304 304 304 304 304 304 304 305 306 308 307 305 305 305 305 304 304 304 304 304 304 305 306 306 306 306 307 306 307 307 306 307 308 309 311 313 314 314 313 312 312 311 309 309 310 311 315 319 320 319 322 320 321 322 321 320 321 323 326 325 326 326 325 327 330
306 305 305 304 304 304 304 304 304 304 305 304 304 303 304 305 305 306 306 305 306 304 304 304 304 303 304 304 304 303 303 304 304 304 305 305 305 305 306 306 306 308 308 309 310 311 313 312 311 311 311 309 309 310 312 312 313 319 320 316 322 320 320 319 318 319 320 321 323 324 325 329 326 323
306 306 305 305 305 304 304 305 304 304 304 305 304 305 304 304 304 305 305 305 304 305 305 304 304 303 303 303 303 303 303 304 304 304 304 304 304 305 305 305 305 307 306 307 307 308 309 309 311 311 311 311 313 316 316 316 317 320 321 326 313 318 320 318 318 317 317 320 321 320 321 323 324 329
307 306 306 306 305 306 304 305 305 305 305 305 306 305 306 305 305 304 304 304 304 303 304 303 303 303 303 303 303 302 302 302 303 304 304 303 304 304 303 304 305 306 304 305 306 307 308 309 312 313 314 317 318 318 315 312 311 313 315 318 314 313 317 319 321 320 318 320 319 318 317 319 321 323
306 306 306 306 305 305 305 305 305 305 305 305 305 305 306 306 305 303 304 306 305 305 304 303 302 302 302 302 302 301 301 301 302 302 302 302 302 303 303 304 304 304 304 304 305 306 309 313 313 315 315 313 313 311 310 310 311 312 315 316 318 314 314 314 316 317 323 319 316 314 315 318 322 321
306 306 305 306 306 306 306 305 305 305 304 305 304 305 305 305 305 305 305 305 305 303 302 302 302 301 301 301 301 301 301 300 301 301 301 302 302 302 302 302 303 304 304 305 306 308 309 311 312 311 311 311 311 311 309 311 311 313 314 314 314 316 318 313 314 313 313 314 316 318 321 319 316 315
306 306 306 306 306 306 306 306 306 306 306 305 304 305 305 304 304 304 305 304 303 301 301 301 300 300 300 299 300 301 300 299 299 299 300 300 301 302 302 302 303 303 304 305 306 306 307 309 310 310 309 309 310 310 310 310 310 311 312 312 314 314 313 315 317 313 311 312 311 312 313 314 316 317
306 307 306 306 306 306 306 306 306 306 305 305 306 305 305 304 304 304 304 304 302 302 301 301 300 299 299 298 298 297 298 299 298 299 300 300 300 301 302 302 302 302 303 304 303 304 306 307 308 309 308 308 309 309 310 310 309 310 310 312 311 310 310 311 311 311 313 316 313 311 313 314 315 315
Wind_Speed
7 6 8 6 5 5 6 6 6 5 5 4 4 4 5 6 6 5 4 4 4 3 5 1 5 5 9 11 4 7 5 4 5 10 9 9 9 16 20 19 19 19 18 18 18 19 19 20 21 22 23 23 23 24 23 23 23 23 22 22 21 21 21 19 17 16 16 16 17 17 16 16 17 17
7 8 8 7 6 5 6 6 7 7 6 5 5 4 5 4 5 5 6 6 3 4 3 1 3 5 8 7 8 7 3 9 6 10 8 9 10 10 17 18 18 18 17 17 17 17 17 18 19 20 21 23 23 23 23 24 24 23 23 23 22 22 21 19 17 16 16 16 17 17 17 17 16 16
7 8 9 8 7 7 7 6 6 6 6 6 5 5 4 5 5 4 5 5 1 1 4 3 4 3 6 7 9 9 4 6 1 8 8 11 8 4 11 16 17 17 17 16 17 18 18 19 19 20 20 21 21 21 21 22 23 24 23 23 23 22 21 19 17 16 17 17 18 18 18 17 17 16
8 9 9 9 8 8 8 7 7 6 5 6 7 6 6 5 5 5 5 7 7 3 5 4 6 4 5 7 7 5 11 4 5 6 7 6 4 7 7 14 15 16 16 17 17 18 18 19 20 20 21 21 20 21 21 20 21 22 24 23 22 23 20 19 18 18 18 19 19 19 19 19 18 17
9 8 9 9 9 9 9 8 8 7 6 6 6 7 6 6 5 5 6 6 7 6 1 3 5 4 4 5 4 6 6 8 6 9 9 7 8 6 6 5 13 17 17 17 17 18 18 19 19 20 20 20 21 21 20 20 20 21 21 22 21 21 20 20 20 20 20 20 20 20 20 20 19 18
8 9 9 8 9 9 9 9 9 8 7 7 6 6 7 7 6 6 7 7 8 9 6 3 3 4 2 4 4 4 5 6 9 8 8 9 7 3 2 4 6 16 16 16 17 17 17 18 18 19 19 20 21 21 21 20 20 20 20 20 20 19 19 19 19 19 19 20 19 19 19 19 19 18
8 9 9 10 10 8 10 9 8 8 9 8 7 7 7 6 7 6 6 7 8 9 8 6 5 2 2 4 5 4 4 5 6 6 9 9 5 4 3 4 3 9 14 13 13 15 15 16 17 18 18 19 19 20 20 20 19 20 19 19 19 19 18 19 19 19 19 19 19 19 19 19 18 18
8 9 8 9 9 10 10 9 8 8 9 9 9 9 7 7 7 6 6 6 7 7 9 8 7 6 6 6 5 4 4 4 4 4 7 6 9 6 4 5 3 1 13 12 12 13 14 16 16 17 18 18 19 19 20 19 19 19 19 19 19 19 19 19 18 18 19 19 19 19 19 19 19 18
9 9 9 9 9 9 10 10 9 9 11 9 7 8 8 7 7 7 7 7 7 7 8 9 7 7 6 6 6 5 5 4 3 4 6 6 5 6 4 4 2 7 15 13 12 12 14 15 16 17 17 17 18 18 19 19 19 20 19 19 19 19 20 19 19 18 18 18 18 18 18 18 18 18
7 8 8 8 9 9 10 10 10 10 10 9 8 9 9 8 8 8 7 7 7 8 8 8 8 7 7 7 5 5 4 5 5 4 4 4 4 4 7 4 3 5 6 8 9 11 12 15 16 17 17 17 18 18 18 19 19 20 20 20 20 20 20 20 19 19 19 19 19 18 18 18 18 18
8 9 9 9 9 9 10 10 11 11 11 9 9 8 8 9 9 8 8 8 7 7 8 8 8 8 6 6 7 6 6 7 4 4 4 4 2 3 4 4 4 5 6 9 8 8 7 6 12 15 17 17 18 18 18 18 19 19 20 20 20 21 21 21 20 20 19 19 19 19 18 18 18 19
9 8 8 8 8 9 9 10 10 11 10 10 10 9 8 9 10 9 8 7 7 7 7 8 8 8 8 6 6 6 6 6 5 3 4 6 4 4 3 4 5 4 5 7 7 8 9 7 9 12 16 18 18 18 18 19 19 20 20 20 20 20 20 21 21 20 20 20 20 19 19 18 18 18
8 8 7 6 8 9 12 15 14 13 12 10 10 10 10 10 10 9 8 8 8 7 7 7 7 7 7 6 6 6 6 7 7 7 7 8 7 4 4 5 6 5 5 6 7 8 7 7 8 7 8 10 15 15 18 16 20 21 20 20 19 19 20 20 20 21 21 21 21 20 20 19 19 19
8 9 8 7 10 12 15 16 17 16 15 14 11 10 11 10 9 9 9 8 8 8 8 7 7 7 7 7 7 7 7 7 7 7 3 5 6 7 6 5 5 4 5 6 7 7 4 3 5 7 8 7 10 10 11 12 14 17 21 20 19 19 20 20 20 20 20 20 20 20 20 20 20 20
9 9 9 9 9 11 13 13 17 16 16 13 14 14 14 12 9 9 8 8 8 8 8 8 8 7 8 8 7 7 8 7 8 8 8 8 7 6 6 6 3 2 4 5 5 6 5 3 7 7 6 6 5 8 11 12 16 15 20 22 21 20 20 20 20 20 21 21 21 21 21 21 21 21
9 10 9 9 7 8 11 10 12 15 17 16 16 16 15 14 11 8 7 8 8 9 9 9 8 8 7 8 8 7 7 7 8 8 9 7 7 7 7 7 5 2 2 4 6 7 4 3 3 6 8 7 7 7 9 16 15 16 17 20 22 21 21 21 21 21 22 22 22 22 22 22 22 22
9 9 9 8 8 7 13 12 13 12 12 14 15 15 15 12 9 6 6 8 8 9 9 9 9 8 10 11 9 9 9 8 9 8 8 7 8 8 8 6 7 3 2 3 6 8 4 2 4 7 7 6 5 6 9 14 11 16 13 13 18 20 21 22 21 21 22 21 21 21 22 22 22 22
9 10 9 8 8 9 11 12 14 13 12 12 10 10 10 9 10 10 6 8 10 10 8 9 9 9 9 9 11 12 11 10 9 8 8 8 9 9 9 10 9 8 6 6 5 7 5 4 5 7 5 5 5 5 3 3 3 10 14 15 15 16 18 19 20 20 20 20 20 20 21 21 21 21
8 9 8 9 9 9 10 12 16 13 13 12 10 9 9 9 7 7 7 8 7 7 7 8 9 10 10 9 10 11 11 10 9 9 10 10 10 11 11 11 10 10 8 7 4 6 4 3 4 6 5 4 6 4 6 11 13 17 20 17 17 17 17 17 18 19 19 20 20 20 20 21 21 21
7 8 10 9 9 10 10 16 20 18 14 11 10 10 10 9 8 6 5 4 6 7 8 8 9 9 8 8 8 8 9 10 10 9 8 7 7 7 9 9 9 8 7 4 6 7 6 3 5 5 5 4 5 5 5 11 16 14 15 16 17 16 16 16 16 17 17 18 18 19 19 19 20 19
7 8 10 10 9 10 11 17 18 19 18 9 10 10 10 9 8 7 8 7 5 6 10 12 11 7 7 7 8 6 9 9 10 8 7 7 7 9 8 9 7 7 3 5 8 9 9 5 5 6 3 3 5 5 5 6 11 15 14 14 14 14 14 15 15 15 16 17 17 18 18 18 18 19
7 8 12 14 11 11 11 17 18 19 16 10 10 11 10 10 8 8 9 8 8 9 9 10 6 4 6 9 8 2 7 9 10 7 5 7 7 7 8 8 8 8 8 5 6 6 7 9 8 7 5 4 5 5 5 6 6 9 10 13 14 14 15 15 15 15 15 16 16 17 17 17 14 10
6 7 8 14 14 12 13 16 17 18 16 11 10 11 10 10 10 10 12 10 10 10 10 8 9 8 9 9 8 8 9 8 8 6 6 6 6 6 7 8 8 9 4 4 4 4 5 7 6 6 7 7 3 2 1 3 4 5 6 7 8 13 14 14 14 14 15 15 15 16 16 14 10 9
6 7 7 9 16 14 14 13 14 15 16 13 9 10 9 10 11 11 11 10 10 10 8 9 8 8 7 7 7 7 7 7 7 6 7 6 6 6 6 6 6 7 8 3 6 7 6 6 7 4 3 4 5 2 5 4 5 4 4 5 5 7 9 11 10 14 14 14 15 15 15 12 13 9
7 7 8 8 13 14 13 11 11 14 14 14 10 10 10 11 13 15 9 10 12 8 8 7 7 7 7 7 6 6 6 7 7 7 7 7 7 7 7 7 7 7 8 5 10 8 6 6 7 6 5 5 5 6 6 5 4 5 5 5 5 5 4 4 5 5 9 14 15 15 13 12 17 13
8 7 7 8 10 12 11 10 10 11 13 12 11 12 13 13 14 12 8 8 8 8 7 7 7 7 7 7 7 6 7 7 8 8 8 8 8 7 7 8 8 9 9 7 9 5 6 7 6 7 6 6 7 6 7 6 6 7 3 4 4 4 4 4 4 5 5 4 5 9 10 14 16 20
8 8 8 8 11 12 11 12 11 6 10 10 10 13 15 16 12 11 8 8 8 8 7 7 7 7 7 8 7 7 8 8 9 9 8 9 9 8 8 9 9 9 9 7 4 5 5 5 6 6 6 7 8 8 7 7 5 2 4 5 4 4 5 3 4 4 4 3 5 4 8 12 16 18
8 7 7 7 10 10 11 11 12 7 4 7 9 10 14 14 10 9 9 9 8 8 8 7 7 7 7 8 8 8 8 9 9 9 9 9 9 9 9 9 10 5 5 6 7 6 6 7 7 7 7 8 8 8 8 8 8 7 8 5 6 6 4 4 5 4 4 4 5 4 6 5 6 8
5 2 6 9 9 10 11 12 11 7 5 1 5 6 11 11 8 9 9 9 9 9 9 8 8 7 7 8 8 8 8 9 8 8 8 9 8 9 9 10 7 3 5 5 6 7 7 7 7 7 7 7 8 8 8 8 8 7 5 7 6 5 5 5 6 5 4 3 3 5 4 7 6 8
5 9 10 10 12 9 6 7 8 8 9 10 7 7 10 8 8 9 9 9 9 9 9 9 9 8 8 7 8 8 6 7 8 8 9 8 8 8 8 8 8 5 4 5 5 7 7 7 8 7 7 7 6 7 7 9 7 6 7 6 5 7 6 4 5 3 2 3 4 4 6 5 7 5
6 8 10 9 7 9 10 7 7 8 10 8 9 8 8 8 8 8 8 9 9 9 9 9 9 8 8 8 7 7 7 7 7 8 8 8 8 8 8 8 6 6 5 5 4 5 6 7 8 8 8 8 7 7 8 7 7 6 5 5 6 6 7 7 5 5 5 5 3 4 5 5 5 8
8 8 9 8 7 8 8 7 7 7 8 8 8 8 9 9 8 8 9 9 8 8 9 9 9 8 8 8 8 7 7 7 7 7 7 8 8 8 7 7 6 6 6 5 5 5 5 5 6 7 6 6 6 7 7 6 5 6 6 6 6 6 6 6 6 6 7 6 6 5 5 6 5 5
9 7 6 7 7 7 8 8 8 8 8 8 8 9 9 8 8 9 8 9 9 9 9 9 9 9 8 8 8 8 7 7 8 7 7 7 7 8 7 7 7 7 7 7 7 7 7 6 5 6 6 5 4 4 5 5 5 6 6 6 5 6 6 6 6 6 7 6 6 5 4 4 6 7
8 6 7 6 7 7 7 8 8 8 8 8 9 9 9 8 8 9 8 9 9 9 8 9 9 9 8 8 8 8 8 7 7 7 8 6 6 6 6 6 7 7 7 7 7 8 8 8 7 5 4 4 2 1 3 3 4 5 5 4 5 5 5 6 6 7 7 7 7 7 7 5 4 5
5 5 5 6 7 7 7 8 8 8 8 8 9 9 9 9 9 9 9 9 10 9 8 8 8 8 8 8 8 8 8 8 8 7 7 7 6 6 6 6 6 7 7 7 7 7 8 8 8 8 5 4 5 5 3 4 3 5 4 4 5 5 6 5 6 7 7 7 5 6 7 7 6 3
6 5 6 6 6 7 7 7 7 7 8 8 8 8 9 9 9 9 9 10 9 9 8 8 8 8 8 8 8 8 8 8 7 7 7 7 7 7 6 6 6 6 6 6 7 7 7 8 8 8 8 7 6 3 4 8 6 4 6 6 6 6 6 6 6 7 6 6 6 6 6 7 6 6
5 6 6 6 6 6 6 6 7 7 7 8 8 8 8 8 8 8 9 9 8 8 8 8 7 8 8 8 8 8 8 7 7 7 7 7 7 7 7 7 7 7 7 6 5 6 6 7 7 8 8 8 7 7 4 2 1 3 7 7 6 6 7 7 7 7 6 5 6 6 7 7 7 6
5 6 6 6 5 6 6 7 7 7 7 7 7 7 7 7 7 8 8 7 8 8 8 8 8 8 8 7 8 7 7 7 7 7 7 7 7 8 8 8 8 8 7 8 6 6 6 6 6 7 7 7 7 7 8 8 7 1 5 5 7 7 6 7 7 7 7 7 7 6 7 8 8 8
5 6 5 5 5 5 6 6 6 7 7 7 7 7 7 7 7 7 7 7 7 8 8 7 7 8 8 7 7 7 7 7 7 7 7 7 7 8 8 8 8 7 8 8 7 6 6 6 6 7 8 8 8 8 9 9 8 8 2 5 3 6 6 7 8 7 7 8 7 8 8 8 9 12
5 5 4 4 4 5 5 6 6 7 7 7 7 7 7 7 7 8 8 8 8 8 8 7 7 7 7 7 7 7 7 7 7 7 7 7 7 8 8 8 8 7 7 8 7 7 7 7 7 8 8 8 9 8 9 9 9 7 6 4 6 3 4 7 7 8 8 8 9 9 9 8 8 6
5 4 4 4 5 5 6 6 7 6 6 6 6 6 6 8 8 8 7 7 8 7 7 7 7 7 7 7 7 8 7 7 7 7 8 8 8 8 9 9 7 8 8 8 8 8 8 8 8 12 12 9 8 8 8 7 6 5 6 4 7 8 4 2 5 7 7 8 8 9 9 9 8 7
4 4 4 4 5 5 5 5 6 6 6 6 6 6 6 6 6 7 7 7 8 8 7 7 7 7 7 7 7 7 7 8 8 8 8 8 8 8 8 7 8 8 8 8 9 8 8 8 8 9 8 7 7 7 7 7 7 6 6 7 5 7 12 10 9 7 5 6 7 8 8 8 7 8
3 3 3 4 4 4 5 6 5 5 6 6 6 6 6 6 6 6 6 7 7 7 7 7 7 7 7 7 7 8 7 7 8 8 8 8 8 8 8 8 8 9 9 9 8 9 9 8 7 8 8 7 6 6 8 8 8 7 7 6 6 7 8 6 14 14 13 12 10 8 6 6 7 7
3 3 3 4 4 4 5 5 5 5 5 4 5 5 5 6 6 6 6 7 7 7 7 7 7 7 8 8 8 7 7 8 8 8 8 8 8 8 8 8 9 9 9 8 9 9 9 9 9 8 7 7 6 7 8 8 8 7 8 8 8 8 7 8 9 8 9 14 15 13 13 12 10 10
3 3 3 3 4 4 4 5 5 5 5 4 5 5 5 5 5 6 6 6 6 7 7 7 7 7 8 8 8 8 8 8 8 8 8 8 8 8 8 8 8 9 8 8 9 9 9 9 9 8 7 7 8 7 7 8 8 8 8 7 9 6 6 8 9 9 8 8 9 15 11 12 13 14
Wind_Direction
333 333 329 328 327 333 332 326 329 327 314 307 309 297 297 328 316 295 299 315 313 360 32 6 323 346 340 334 334 252 230 210 201 220 227 227 231 187 194 195 204 205 207 211 213 215 217 219 220 222 222 221 220 220 218 218 217 217 216 218 220 219 220 220 219 214 209 207 210 214 216 214 215 218
340 341 329 336 322 330 320 325 321 323 322 312 311 309 314 308 288 309 306 312 312 308 341 25 277 333 326 320 316 305 251 46 313 243 226 229 224 200 192 198 200 204 205 206 211 212 215 217 219 220 222 223 222 220 219 218 219 219 217 217 218 219 220 221 217 212 208 205 207 211 215 217 217 217
350 343 336 339 330 335 325 320 322 326 322 322 321 314 303 296 296 309 302 292 337 337 317 278 244 284 300 310 308 306 271 143 264 259 227 236 55 40 195 196 197 202 203 206 209 211 213 216 218 218 220 223 223 223 222 220 219 219 218 217 217 217 218 218 215 211 208 206 206 209 212 216 217 218
355 350 345 345 339 337 332 327 323 319 322 319 318 322 319 305 298 282 284 297 302 276 253 287 298 295 304 298 290 294 285 89 263 274 287 279 92 246 220 190 198 200 204 206 209 210 212 215 216 217 219 220 221 221 221 222 219 218 218 217 216 216 215 212 212 210 208 206 206 207 210 212 215 217
348 350 342 343 341 340 331 331 325 326 328 325 322 322 315 312 316 311 295 300 307 305 352 281 281 293 303 293 313 305 291 302 285 270 261 253 239 238 267 240 195 202 202 206 208 209 212 213 215 217 218 219 220 220 220 220 220 221 220 219 218 216 213 211 210 209 209 208 207 207 208 210 211 213
353 343 336 339 341 338 329 331 329 333 333 334 330 333 328 320 328 343 331 321 315 309 305 293 283 282 268 296 298 301 301 283 280 294 287 273 255 251 258 291 270 209 202 206 205 210 212 214 216 217 217 219 219 220 220 219 219 219 220 220 221 219 217 214 213 212 211 211 211 211 209 210 210 211
350 343 341 341 337 336 330 331 332 341 335 333 331 337 333 338 337 346 344 331 314 318 316 311 301 268 270 280 305 298 298 282 275 267 268 262 281 282 257 268 320 197 233 206 211 212 212 215 217 218 219 218 218 219 219 219 218 217 217 218 219 220 220 218 216 215 214 214 213 214 213 212 212 212
347 342 339 340 338 337 332 333 334 341 343 341 344 334 333 341 345 351 346 347 337 326 317 317 316 317 311 306 303 293 275 289 275 271 275 274 272 279 272 280 315 47 250 231 216 215 216 217 219 220 221 220 219 218 217 217 216 216 215 215 215 216 218 219 218 216 216 216 216 214 214 213 213 212
347 345 342 339 338 339 334 339 343 346 352 348 349 348 340 335 349 345 348 348 338 329 318 316 321 318 308 307 300 293 307 308 294 280 278 282 275 282 277 256 184 221 236 222 214 218 220 220 220 221 221 222 221 220 219 216 215 214 214 214 214 214 215 216 217 216 216 216 217 216 215 214 214 213
347 341 334 337 342 337 342 344 344 344 342 343 350 351 344 338 337 334 336 340 336 328 320 314 312 319 320 316 308 297 289 317 314 286 282 293 282 269 255 232 239 245 235 222 207 209 220 218 219 218 219 221 221 223 221 220 217 215 213 213 213 213 214 216 216 217 217 216 217 217 217 216 215 214
344 341 336 337 336 341 348 347 352 349 342 342 344 343 341 335 329 324 327 330 327 321 318 314 314 318 319 318 312 325 333 297 279 307 302 294 286 251 266 278 254 233 242 245 246 255 256 229 212 210 219 218 220 220 222 222 221 218 216 214 213 212 213 214 216 217 218 218 218 218 217 217 216 216
353 355 340 344 346 347 353 354 355 352 349 340 334 338 329 326 324 325 328 326 319 316 313 314 321 318 315 314 321 322 316 313 305 290 315 316 307 289 270 259 273 272 265 258 256 243 242 208 215 205 208 217 220 220 220 221 222 220 219 217 215 214 214 215 215 216 216 217 218 218 218 217 217 218
359 350 343 349 358 351 354 359 3 0 350 338 330 330 327 323 324 323 322 319 313 311 306 306 310 310 308 313 319 327 327 325 325 332 338 306 296 296 285 272 240 246 256 266 261 245 226 244 246 222 213 213 213 222 221 224 218 222 222 219 217 215 216 216 217 217 217 218 218 218 218 217 217 217
356 354 348 357 1 3 4 1 357 351 344 345 345 339 336 337 331 325 318 311 310 312 310 306 307 303 304 313 333 326 327 322 320 317 301 277 301 307 293 267 255 226 238 252 256 262 239 175 272 271 258 257 210 222 207 222 219 212 218 219 218 217 216 216 217 217 219 219 220 219 219 219 218 218
358 357 354 348 3 13 10 2 353 340 340 348 344 337 332 325 317 314 312 313 317 312 306 308 303 308 307 313 326 324 321 325 321 322 320 319 311 296 292 294 276 215 255 256 268 270 274 215 224 239 249 240 265 271 252 203 214 207 203 212 216 217 217 216 216 217 218 219 220 220 220 220 219 219
3 355 356 4 7 14 1 354 354 345 342 345 341 335 330 323 330 336 331 321 312 316 312 309 312 309 307 312 317 322 325 323 316 310 310 304 291 290 291 290 282 242 221 278 286 284 279 264 241 247 237 237 233 226 258 287 211 214 203 205 211 215 216 217 217 217 218 219 219 219 220 220 220 220
12 7 359 4 7 358 358 5 355 347 339 337 334 332 332 330 339 341 325 321 323 322 316 321 319 322 324 320 318 328 321 310 299 306 304 311 309 308 297 287 296 317 239 261 282 283 279 224 257 255 250 246 236 239 243 260 262 221 215 216 213 214 215 217 218 219 220 220 220 221 221 221 221 221
20 19 6 5 359 357 1 6 355 347 337 332 328 342 338 334 342 336 333 343 342 335 322 326 323 327 329 322 331 330 326 316 307 306 300 299 301 300 296 300 295 286 275 268 284 274 263 225 240 251 246 239 244 234 159 60 295 253 237 222 224 224 221 218 219 220 221 222 221 222 222 222 223 223
20 23 15 4 0 6 4 5 354 346 340 329 327 334 332 328 338 340 357 3 341 324 325 326 324 324 331 341 338 343 341 328 309 293 290 293 295 293 289 283 276 272 245 236 243 271 277 182 235 253 255 244 244 238 158 216 227 212 214 213 223 224 224 223 221 221 221 221 222 221 222 222 222 223
15 29 25 11 6 9 6 4 355 349 338 332 345 343 329 330 332 331 7 13 316 319 326 324 324 322 326 331 341 341 344 338 330 315 297 284 280 294 296 293 290 283 319 263 223 261 271 216 245 259 249 239 246 230 213 206 223 225 223 214 215 223 228 228 225 223 222 222 223 223 222 224 225 225
19 22 28 22 6 8 9 4 356 350 342 343 351 342 339 337 332 339 349 330 314 339 317 304 293 294 290 301 317 317 348 337 336 324 310 324 334 314 304 301 308 299 319 313 337 314 291 269 254 275 254 218 237 234 220 211 220 226 227 227 229 226 225 228 229 227 225 224 223 223 222 223 224 226
12 11 28 32 14 10 11 4 358 354 350 350 355 346 339 341 343 347 349 333 337 338 315 306 313 311 284 300 299 339 0 345 1 354 350 347 328 314 306 305 312 309 298 1 23 322 295 307 300 281 274 231 217 240 224 225 221 210 219 223 230 233 231 229 226 225 227 227 227 224 223 223 221 225
3 6 7 34 31 17 11 5 359 358 358 352 4 350 346 346 345 348 337 335 336 338 335 336 338 330 334 326 320 328 333 338 359 353 342 334 339 327 321 311 310 305 317 31 338 314 307 303 312 311 295 281 275 204 110 250 237 243 239 231 219 220 230 237 235 231 230 229 228 229 227 225 201 220
15 6 358 23 32 11 4 358 356 354 353 357 9 3 360 348 344 337 328 337 334 331 329 330 334 332 332 330 323 324 328 334 345 350 340 336 331 325 315 317 306 298 302 33 4 329 302 280 296 324 319 283 288 284 224 209 220 228 230 226 256 218 208 226 238 231 233 228 228 228 224 205 189 213
11 8 6 10 24 1 348 346 346 356 351 5 10 13 359 347 322 313 328 337 335 334 331 330 331 336 339 337 337 339 341 337 344 340 339 335 324 315 315 307 311 295 296 335 12 323 308 313 296 308 310 285 284 299 306 313 267 238 212 242 233 234 240 224 238 244 211 225 229 227 222 194 191 213
11 9 4 13 12 347 339 331 335 346 348 358 15 355 330 312 317 333 342 344 346 344 343 342 345 344 337 338 339 341 343 347 346 337 330 328 319 312 299 297 295 296 295 330 350 328 316 301 310 322 314 306 298 278 280 277 252 246 188 221 233 237 230 242 243 238 236 211 225 217 207 189 196 210
7 12 359 16 359 332 327 323 320 315 351 1 358 330 329 322 325 343 1 354 351 349 352 352 353 350 349 342 342 343 342 339 338 333 333 322 319 309 298 290 283 284 301 310 349 346 337 318 320 328 319 319 307 305 294 282 281 307 242 246 238 216 228 253 250 255 244 226 264 191 195 178 199 206
17 9 2 351 322 305 300 305 302 274 18 2 325 321 324 323 355 360 357 2 355 352 350 353 353 352 357 344 344 343 339 332 330 331 327 325 319 313 311 302 306 321 343 1 3 5 354 341 333 336 325 313 308 307 310 303 301 305 300 314 321 312 276 211 241 248 248 250 253 238 253 223 188 203
3 336 268 278 284 290 282 282 274 307 350 314 304 322 320 342 4 4 360 357 354 353 352 352 351 348 358 346 344 339 335 328 327 337 334 332 331 329 323 315 321 337 12 5 8 7 354 346 337 330 317 311 304 299 298 300 303 300 301 304 296 284 314 301 282 295 310 310 294 273 255 256 206 197
225 230 251 242 256 280 273 312 347 353 348 341 345 348 348 359 2 3 357 355 353 352 348 347 347 348 347 345 342 337 340 341 345 344 340 339 340 340 335 329 328 353 16 3 5 5 357 357 348 330 314 308 300 293 292 298 299 302 308 317 328 293 258 311 360 348 280 258 265 285 265 256 249 224
349 344 345 336 296 267 299 269 307 5 347 349 355 354 357 354 359 0 358 355 351 349 343 342 343 340 342 336 337 342 344 349 350 350 344 342 343 344 345 329 339 348 349 360 10 13 0 352 348 337 323 320 313 318 323 318 305 306 325 329 333 323 316 320 335 344 336 322 293 235 235 225 222 246
329 334 337 335 352 352 349 353 354 356 356 355 354 354 355 346 354 355 353 355 355 346 341 338 335 336 337 342 345 342 346 349 350 358 351 350 341 343 345 339 354 345 340 349 350 7 359 349 330 331 324 323 328 337 329 315 322 341 331 335 334 327 335 344 342 347 345 327 312 305 303 287 256 210
314 322 330 339 347 354 352 356 355 352 353 359 353 354 352 345 351 355 353 359 354 345 340 344 338 343 340 343 345 341 349 352 343 356 353 357 348 343 346 346 353 349 345 343 345 344 342 333 331 308 303 304 323 338 335 331 344 343 340 347 347 335 342 345 340 337 330 321 313 307 295 304 286 267
298 333 336 339 344 349 352 359 355 351 351 355 353 351 344 345 356 351 352 357 346 340 342 343 341 343 341 343 347 343 344 350 343 348 335 353 354 348 350 345 345 346 343 341 344 342 341 332 324 295 261 279 224 317 340 347 344 352 340 333 335 325 327 330 327 331 327 318 315 303 301 293 288 277
327 335 339 343 350 352 350 355 352 350 351 354 351 351 346 347 349 353 352 356 341 342 346 345 344 346 344 344 345 343 344 345 340 346 348 346 345 348 350 350 350 345 343 343 342 342 337 336 331 323 308 236 212 168 337 315 1 353 333 319 330 318 321 327 325 316 315 313 323 325 308 293 286 296
310 344 344 349 355 347 345 353 351 351 351 351 350 348 346 345 354 351 356 344 338 343 349 343 346 351 345 344 343 340 344 340 339 346 344 354 351 345 344 351 341 344 340 342 343 344 344 340 342 339 331 321 299 266 158 272 281 24 337 343 338 330 322 320 318 310 295 305 317 311 300 300 306 300
344 347 349 351 350 347 346 346 352 352 352 348 348 347 348 346 351 349 342 335 347 346 348 336 351 351 345 346 340 342 341 342 342 344 346 349 347 348 343 347 342 341 340 341 345 344 348 345 351 350 340 337 331 324 340 129 114 32 354 336 328 324 328 320 317 306 312 314 308 302 306 312 304 312
345 345 346 350 349 346 353 353 349 346 347 347 347 346 344 343 346 339 337 347 356 344 343 344 353 352 346 351 343 343 339 342 341 344 346 346 350 348 344 342 337 340 339 327 337 344 346 350 358 356 340 335 327 327 324 334 325 226 149 338 327 330 322 322 316 318 312 307 301 314 312 304 304 307
343 346 347 350 353 354 351 346 341 347 343 348 343 347 346 346 341 344 350 354 354 344 339 342 354 350 339 349 346 340 339 342 341 345 345 345 349 342 339 343 333 333 333 329 332 335 340 343 359 348 342 330 324 322 320 315 312 323 349 145 322 325 334 340 323 315 317 314 313 315 303 286 279 261
348 334 354 343 352 354 349 346 343 343 341 346 342 355 348 348 343 354 347 355 351 343 337 344 350 343 343 348 344 340 337 339 339 342 343 340 344 337 341 339 322 328 331 332 329 334 335 342 344 344 331 316 303 301 302 291 288 284 296 143 221 285 352 334 326 325 316 321 323 311 305 306 302 318
345 337 349 346 348 352 344 350 340 341 340 346 339 354 347 345 351 2 341 351 341 341 340 344 348 342 346 343 342 340 339 340 342 345 345 339 336 335 339 328 327 336 334 329 330 328 333 342 326 304 293 295 295 292 277 279 294 320 332 324 186 241 250 217 325 324 314 315 310 311 304 305 309 301
329 335 336 346 351 335 340 344 340 337 342 340 340 347 338 338 355 337 331 0 348 349 349 349 348 343 345 343 344 342 339 341 343 343 340 339 338 336 335 333 336 334 329 326 328 330 328 314 315 312 307 306 306 313 315 316 317 322 329 321 319 205 198 208 228 240 276 309 315 303 302 306 308 303
331 326 329 343 338 334 338 341 342 339 339 335 334 337 329 344 344 343 342 350 354 352 354 346 348 346 345 345 344 340 338 341 341 338 336 336 336 334 334 335 333 330 327 321 323 323 322 323 325 315 316 307 317 319 308 322 318 310 306 310 315 322 311 228 197 209 225 231 233 251 293 306 311 298
324 315 324 335 326 334 334 339 338 339 329 329 325 326 341 342 343 340 347 355 357 354 350 350 349 347 346 344 340 338 341 342 336 332 332 333 330 332 330 331 329 327 325 324 328 327 329 328 322 318 314 317 317 314 323 320 312 321 316 312 315 312 309 335 330 303 251 211 214 229 232 245 248 264
317 313 319 323 322 324 333 334 334 331 330 338 334 338 339 340 344 338 355 359 356 349 348 351 349 350 346 344 340 340 341 336 333 331 330 328 330 329 329 329 329 328 326 331 329 327 333 326 316 316 318 316 317 318 316 306 312 308 303 311 305 297 333 335 322 317 317 320 192 196 217 228 246 248